Location: Br�znic
(45.9167°N, 22.6500°E)
Time: 13:36:39
(UTC+00:00)

Cosmos 2333 Rocket - Pass Details

Date: 03 March 2021
Orbit: 837 x 864 km, 70.8° (Epoch: 11 April)

Event Time Altitude Azimuth Distance (km) Brightness Sun altitude
Rises 17:04:59 0° 159° (SSE) 3,386 5.1 -8.8°
Reaches altitude 10° 17:08:07 10° 142° (SE) 2,461 4.3 -9.4°
Maximum altitude 17:11:54 19° 99° (E) 1,934 3.5 -10.0°
Drops below altitude 10° 17:15:42 10° 57° (ENE) 2,486 4.2 -10.7°
Sets 17:18:52 0° 40° (NE) 3,432 5.0 -11.2°
